Temp
9 9 8 7 6 6 6 6 7 8 7 9 9 8 5 5 6 6 7 7 8 9 9 10 9 10 11 10 11 11 12 12 12 13 13 14 15 14 14 13 13 14 14
9 8 7 7 6 6 5 5 5 7 7 7 7 6 5 5 4 5 5 6 7 8 8 9 9 9 9 10 10 10 11 10 10 9 10 12 14 14 13 12 13 13 13
9 8 7 6 6 5 4 4 4 5 6 6 6 6 6 5 5 6 4 4 5 7 7 7 7 8 7 8 8 8 8 8 6 7 6 7 7 9 13 13 13 12 13
9 8 7 6 4 3 3 3 4 5 6 7 7 7 6 5 5 4 4 4 3 4 5 5 5 6 6 6 6 6 6 6 5 3 5 4 5 5 6 9 11 11 11
9 7 7 5 4 3 3 2 3 4 5 6 6 6 5 5 5 5 5 4 3 3 3 3 3 4 4 4 4 4 4 3 2 2 2 3 4 4 5 5 7 9 10
8 7 5 4 4 3 3 2 2 4 4 5 5 5 5 4 4 4 3 3 2 2 2 2 2 1 1 2 2 2 1 1 1 1 1 1 2 3 3 3 4 4 10
7 6 5 4 3 3 3 1 2 3 4 4 4 4 4 3 3 2 1 0 -1 -2 -2 -2 -2 -1 -2 -0 -0 -1 -1 -1 -1 -0 0 0 1 1 2 2 3 3 3
7 5 4 4 3 3 3 3 3 3 3 3 2 1 2 1 1 0 -1 -2 -3 -3 -4 -4 -4 -3 -3 -3 -3 -2 -1 -1 -0 -0 0 1 1 1 1 1 2 2 2
6 5 4 4 3 3 4 3 3 3 3 2 1 1 1 0 -1 -2 -3 -4 -4 -3 -4 -4 -4 -4 -4 -4 -3 -4 -3 -2 -2 -2 -2 -1 -0 0 1 1 1 1 -0
5 5 4 3 2 3 3 3 3 3 2 1 0 -0 -2 -2 -2 -2 -3 -3 -3 -3 -3 -3 -3 -4 -4 -4 -5 -5 -5 -4 -4 -4 -3 -3 -2 -2 -1 -0 -0 -1 -2
5 4 3 3 2 2 2 2 2 1 0 -1 -2 -2 -3 -4 -3 -2 -3 -4 -4 -4 -4 -2 -2 -3 -4 -4 -5 -5 -5 -5 -5 -5 -4 -4 -3 -3 -3 -2 -2 -1 -1
5 4 4 3 2 1 1 1 0 -1 -2 -3 -4 -4 -4 -4 -4 -4 -4 -5 -5 -5 -5 -3 -2 -3 -5 -5 -6 -5 -5 -5 -6 -6 -5 -5 -4 -4 -4 -3 -3 -2 -2
5 4 4 3 2 1 1 -0 -2 -3 -3 -3 -3 -3 -3 -3 -4 -4 -5 -4 -5 -5 -5 -4 -2 -3 -4 -5 -6 -7 -6 -5 -6 -7 -5 -6 -6 -5 -6 -5 -3 -3 -3
6 5 4 3 1 1 0 -1 -2 -3 -3 -4 -4 -4 -4 -4 -4 -4 -4 -4 -5 -5 -4 -4 -4 -4 -5 -6 -6 -7 -6 -5 -6 -6 -7 -5 -6 -6 -6 -7 -6 -4 -3
5 5 4 3 1 1 -0 -2 -3 -4 -3 -4 -4 -4 -4 -4 -4 -4 -4 -4 -5 -6 -5 -5 -5 -4 -5 -7 -8 -7 -6 -6 -6 -7 -5 -5 -6 -5 -6 -7 -7 -7 -5
5 5 5 3 1 1 -1 -2 -3 -4 -4 -4 -5 -5 -4 -4 -4 -4 -4 -4 -5 -5 -6 -5 -5 -4 -6 -8 -8 -7 -6 -6 -6 -6 -6 -6 -6 -6 -6 -6 -6 -7 -8
6 5 4 3 1 0 -0 -3 -3 -3 -4 -4 -5 -4 -4 -4 -4 -4 -5 -6 -6 -6 -6 -6 -6 -5 -6 -8 -7 -8 -7 -7 -8 -8 -8 -7 -7 -7 -7 -7 -7 -6 -7
6 5 4 2 0 -1 -1 -3 -3 -4 -5 -5 -5 -5 -4 -4 -5 -5 -6 -7 -7 -7 -6 -6 -6 -6 -7 -8 -9 -9 -9 -9 -9 -9 -10 -9 -9 -9 -8 -7 -7 -7 -7
6 5 4 1 0 -0 -2 -3 -4 -4 -5 -5 -5 -5 -5 -5 -5 -6 -7 -9 -9 -9 -8 -8 -8 -8 -9 -9 -9 -9 -9 -10 -10 -10 -11 -11 -11 -13 -8 -7 -7 -7 -7
5 5 3 2 1 -1 -3 -4 -4 -5 -5 -5 -5 -5 -5 -5 -6 -7 -8 -9 -10 -10 -10 -9 -9 -9 -9 -12 -11 -10 -9 -10 -10 -11 -11 -14 -14 -14 -12 -8 -8 -8 -9
4 3 2 1 -1 -2 -3 -4 -5 -5 -5 -5 -6 -6 -6 -7 -7 -8 -9 -10 -10 -11 -10 -10 -10 -10 -9 -11 -13 -11 -10 -11 -12 -13 -13 -14 -15 -14 -15 -11 -11 -11 -10
1 1 1 -1 -3 -3 -4 -5 -5 -6 -6 -6 -7 -7 -7 -8 -9 -9 -10 -11 -11 -11 -11 -10 -10 -10 -10 -10 -11 -13 -13 -14 -14 -14 -15 -15 -15 -15 -15 -14 -12 -11 -10
0 -0 -0 -2 -4 -4 -5 -5 -5 -5 -6 -7 -7 -8 -9 -9 -10 -10 -10 -10 -10 -10 -11 -10 -10 -10 -11 -12 -13 -14 -14 -14 -15 -15 -15 -16 -16 -15 -15 -16 -14 -13 -13
-1 -2 -3 -4 -5 -5 -5 -5 -6 -6 -7 -7 -8 -9 -10 -10 -9 -9 -10 -9 -10 -10 -10 -10 -11 -11 -11 -12 -13 -14 -14 -15 -15 -15 -15 -15 -16 -15 -15 -14 -15 -15 -15
-3 -3 -4 -5 -5 -6 -6 -6 -6 -7 -7 -8 -9 -9 -9 -9 -9 -9 -10 -10 -10 -11 -10 -11 -11 -11 -12 -13 -14 -14 -15 -15 -15 -15 -14 -14 -14 -14 -15 -15 -16 -17 -17
-4 -5 -5 -5 -6 -6 -6 -6 -7 -7 -8 -8 -9 -9 -9 -9 -9 -10 -10 -11 -11 -11 -12 -12 -13 -13 -15 -14 -15 -15 -15 -16 -15 -14 -14 -15 -15 -15 -16 -16 -16 -16 -17
Height
1514 1517 1519 1520 1522 1522 1521 1518 1516 1515 1513 1511 1510 1510 1508 1508 1505 1503 1503 1500 1499 1499 1498 1496 1495 1494 1492 1492 1489 1488 1488 1487 1483 1480 1478 1478 1478 1479 1483 1482 1481 1483 1484
1510 1514 1516 1519 1521 1521 1520 1518 1516 1514 1512 1511 1510 1509 1508 1507 1504 1503 1501 1499 1498 1498 1497 1495 1493 1490 1489 1487 1486 1485 1482 1481 1479 1478 1477 1472 1471 1472 1474 1475 1476 1475 1475
1507 1512 1514 1518 1520 1520 1519 1517 1515 1513 1511 1509 1508 1509 1507 1506 1505 1503 1500 1499 1497 1497 1496 1494 1491 1488 1486 1484 1483 1481 1480 1478 1476 1476 1478 1475 1471 1465 1468 1470 1471 1469 1468
1505 1509 1512 1517 1519 1520 1519 1517 1514 1513 1511 1509 1507 1506 1504 1503 1502 1500 1498 1498 1495 1494 1494 1490 1488 1486 1484 1482 1480 1478 1476 1475 1473 1473 1475 1475 1474 1471 1463 1462 1463 1464 1463
1499 1505 1510 1514 1516 1517 1518 1517 1513 1511 1509 1506 1505 1504 1502 1501 1499 1498 1497 1495 1493 1491 1490 1487 1485 1482 1480 1479 1477 1476 1474 1472 1471 1472 1471 1472 1471 1471 1468 1456 1457 1456 1456
1498 1503 1508 1511 1514 1515 1515 1515 1511 1509 1507 1506 1504 1503 1501 1499 1498 1496 1494 1492 1490 1488 1486 1485 1483 1480 1477 1475 1473 1473 1471 1469 1468 1468 1468 1469 1468 1466 1466 1460 1455 1451 1446
1493 1499 1504 1508 1509 1512 1513 1512 1509 1507 1505 1504 1502 1501 1498 1497 1496 1495 1493 1492 1489 1486 1484 1482 1480 1478 1476 1473 1471 1470 1469 1465 1464 1462 1462 1462 1463 1463 1463 1458 1450 1447 1442
1492 1497 1502 1505 1507 1508 1509 1508 1506 1506 1504 1503 1501 1499 1497 1495 1494 1495 1494 1493 1490 1486 1484 1482 1480 1478 1476 1472 1469 1468 1466 1463 1460 1459 1458 1457 1457 1456 1457 1454 1450 1439 1437
1489 1494 1500 1503 1504 1505 1505 1504 1504 1503 1502 1502 1500 1498 1496 1494 1494 1496 1495 1494 1492 1487 1484 1482 1480 1478 1475 1473 1469 1468 1465 1461 1457 1457 1454 1453 1451 1450 1447 1446 1444 1442 1435
1488 1492 1496 1500 1502 1503 1502 1500 1501 1501 1502 1501 1500 1498 1496 1495 1494 1496 1497 1495 1493 1489 1485 1483 1481 1479 1476 1474 1472 1470 1466 1461 1457 1457 1453 1450 1447 1445 1443 1440 1439 1439 1437
1483 1489 1494 1498 1500 1502 1500 1499 1499 1500 1501 1501 1500 1498 1496 1496 1497 1496 1496 1495 1494 1490 1486 1483 1482 1480 1477 1475 1473 1470 1467 1461 1458 1455 1451 1449 1446 1442 1440 1438 1436 1434 1431
1483 1488 1491 1493 1496 1498 1499 1498 1499 1500 1501 1502 1502 1499 1496 1497 1498 1497 1496 1496 1494 1490 1486 1483 1482 1480 1478 1475 1475 1470 1466 1462 1458 1456 1453 1450 1446 1443 1440 1436 1434 1431 1428
1480 1487 1490 1490 1491 1493 1494 1496 1498 1501 1501 1503 1502 1499 1497 1496 1497 1497 1496 1495 1493 1491 1487 1483 1482 1480 1478 1476 1474 1470 1466 1462 1458 1457 1453 1451 1448 1443 1439 1437 1433 1431 1428
1474 1479 1486 1487 1487 1490 1491 1495 1498 1501 1500 1502 1501 1499 1497 1495 1496 1496 1494 1493 1493 1490 1486 1483 1482 1480 1478 1476 1474 1471 1468 1463 1462 1460 1457 1450 1447 1443 1441 1438 1435 1433 1431
1472 1474 1479 1479 1482 1485 1488 1492 1495 1498 1498 1501 1500 1498 1497 1495 1495 1495 1493 1493 1492 1490 1486 1485 1483 1481 1479 1477 1474 1472 1469 1466 1465 1462 1456 1452 1450 1447 1443 1441 1438 1435 1432
1462 1464 1469 1473 1477 1481 1484 1488 1493 1494 1497 1497 1497 1497 1496 1495 1495 1494 1493 1493 1492 1489 1487 1485 1484 1481 1479 1478 1475 1473 1471 1468 1466 1463 1460 1456 1453 1450 1446 1443 1440 1437 1435
1449 1458 1460 1466 1471 1477 1481 1486 1490 1492 1497 1496 1495 1496 1495 1494 1495 1494 1493 1493 1491 1489 1488 1486 1485 1482 1480 1479 1477 1474 1472 1471 1470 1466 1462 1457 1454 1453 1450 1447 1443 1440 1437
1445 1453 1455 1462 1468 1473 1479 1483 1487 1491 1493 1493 1493 1494 1493 1494 1494 1494 1493 1492 1492 1490 1489 1488 1486 1484 1482 1481 1479 1478 1475 1474 1471 1467 1464 1459 1456 1454 1452 1449 1446 1441 1438
1440 1447 1452 1457 1463 1470 1476 1480 1484 1489 1492 1491 1492 1493 1493 1493 1493 1494 1493 1493 1492 1491 1490 1489 1488 1486 1484 1483 1481 1480 1477 1475 1471 1469 1465 1462 1460 1458 1453 1450 1446 1443 1439
1438 1441 1449 1456 1463 1469 1473 1477 1481 1484 1487 1489 1491 1492 1492 1492 1493 1494 1494 1493 1493 1492 1491 1490 1489 1488 1486 1485 1482 1481 1478 1475 1473 1470 1467 1465 1464 1460 1455 1450 1446 1442 1439
1436 1442 1449 1455 1461 1465 1469 1475 1479 1482 1485 1487 1490 1491 1492 1492 1493 1494 1494 1495 1494 1493 1492 1491 1490 1489 1487 1485 1484 1481 1478 1476 1474 1472 1470 1470 1467 1464 1459 1453 1448 1445 1444
1439 1444 1448 1455 1461 1464 1468 1474 1478 1481 1483 1486 1489 1490 1491 1492 1494 1494 1495 1495 1495 1494 1492 1492 1491 1489 1488 1486 1484 1482 1480 1479 1476 1476 1474 1472 1469 1464 1462 1456 1452 1449 1445
1440 1444 1449 1454 1459 1463 1468 1472 1476 1480 1483 1486 1488 1490 1491 1492 1493 1494 1494 1494 1494 1494 1493 1492 1491 1490 1489 1487 1486 1484 1483 1481 1479 1478 1476 1474 1470 1466 1462 1458 1454 1450 1445
1441 1445 1449 1453 1458 1464 1468 1472 1475 1479 1482 1485 1488 1490 1491 1491 1494 1494 1494 1495 1494 1494 1493 1493 1492 1491 1489 1487 1486 1486 1485 1483 1481 1479 1476 1473 1470 1466 1463 1459 1455 1451 1447
1441 1446 1449 1453 1458 1463 1466 1469 1473 1478 1481 1484 1487 1489 1490 1492 1494 1494 1494 1495 1494 1494 1494 1493 1492 1491 1488 1487 1487 1487 1486 1483 1481 1479 1476 1472 1469 1466 1463 1459 1456 1453 1449
1440 1445 1450 1454 1459 1462 1465 1468 1473 1477 1480 1483 1486 1488 1490 1492 1493 1494 1493 1494 1494 1494 1494 1493 1492 1490 1490 1488 1487 1488 1486 1483 1480 1478 1474 1471 1469 1466 1463 1459 1456 1453 1449
Wind_Speed
13 5 2 1 5 5 5 7 8 8 9 8 8 9 13 14 14 13 13 15 15 15 13 13 12 12 16 18 20 18 18 17 19 22 21 19 19 16 10 8 14 17 19
17 11 7 7 7 7 6 7 8 8 7 6 8 7 6 3 4 11 14 16 16 13 13 13 12 11 11 12 15 17 18 16 14 14 14 12 20 12 9 7 11 12 14
24 17 13 8 8 4 4 6 6 10 8 6 5 2 3 4 7 10 11 14 18 18 17 17 16 14 12 13 14 14 14 15 15 11 4 5 5 19 19 16 18 17 18
22 19 13 4 3 1 7 6 6 7 8 8 7 7 6 8 10 12 13 13 16 19 18 20 19 19 18 16 16 15 14 15 14 10 5 9 11 7 18 18 23 27 22
21 19 11 8 7 5 4 4 5 7 8 8 8 7 8 8 10 12 12 11 13 16 15 17 18 18 17 18 17 16 14 13 13 9 9 8 8 10 15 28 24 29 25
24 17 13 13 8 7 5 6 5 6 9 9 9 8 8 9 12 13 15 16 16 16 16 15 14 14 15 15 14 14 13 13 11 9 8 8 5 10 13 24 25 32 35
24 18 19 16 12 8 9 7 4 5 7 8 9 9 9 10 12 14 15 16 17 17 18 17 16 16 15 13 13 11 14 14 14 14 12 11 12 15 19 24 32 26 34
21 18 19 17 15 12 9 7 4 4 5 7 9 10 11 11 12 13 12 14 14 15 15 15 15 14 14 13 11 12 11 10 9 10 11 11 12 14 16 18 23 36 29
24 25 23 18 17 13 8 7 4 2 4 5 7 9 10 11 12 12 11 13 14 14 15 15 15 12 11 14 12 12 10 8 7 9 8 7 7 9 12 15 19 21 23
28 27 23 19 17 12 8 6 4 2 2 4 5 7 9 10 10 10 11 12 12 13 14 14 16 12 12 14 17 17 15 14 15 14 12 9 9 9 7 8 10 12 15
29 25 20 19 15 10 7 5 4 3 3 3 6 8 9 10 11 10 11 11 13 12 11 12 14 11 11 13 15 13 14 15 15 19 17 14 13 14 12 10 7 8 12
25 23 25 21 15 11 6 4 4 5 5 6 7 6 4 4 6 6 6 5 6 7 9 13 13 11 7 10 16 13 13 14 15 17 17 18 18 17 18 17 15 14 11
24 24 23 24 19 14 10 6 7 6 7 5 3 2 1 1 2 2 3 3 3 6 8 10 11 11 7 8 12 15 13 15 12 14 19 14 16 19 21 20 21 19 15
26 31 29 25 21 15 11 8 11 11 9 7 6 3 2 2 1 1 2 3 3 3 8 11 11 10 9 10 12 13 14 16 12 12 16 18 17 19 18 19 22 21 20
32 33 34 31 25 16 12 10 9 11 7 7 6 5 4 3 2 3 4 4 4 4 8 10 12 11 11 14 12 12 14 16 17 16 18 19 19 16 15 16 18 20 22
39 37 37 34 27 20 16 12 9 12 10 9 9 7 5 3 3 2 3 4 4 4 6 10 13 13 12 12 14 12 14 15 18 19 19 20 20 20 17 16 15 15 21
41 38 39 36 28 21 17 17 16 13 14 11 9 7 5 3 2 1 2 5 8 9 10 11 13 15 12 10 11 11 12 14 16 20 21 22 22 21 20 17 16 15 15
36 38 37 34 27 21 19 20 16 15 13 11 8 7 5 4 3 3 5 7 9 10 11 13 14 14 16 10 9 10 12 14 16 19 24 23 24 24 23 19 17 18 17
41 41 38 34 30 24 23 22 20 18 15 12 10 8 5 4 5 6 7 9 9 11 12 13 13 14 17 15 13 10 13 17 19 20 22 23 25 25 22 20 20 19 19
40 43 39 33 25 24 24 24 22 18 13 12 10 8 7 6 8 9 10 11 10 9 9 11 13 12 14 18 15 13 14 16 19 19 21 24 23 24 24 23 24 24 25
41 39 35 31 27 27 29 26 22 17 14 13 11 10 9 9 10 11 12 12 10 6 6 9 11 11 12 16 17 15 15 18 21 23 22 23 23 23 24 25 27 26 21
37 35 32 27 26 28 27 25 21 17 15 12 11 11 10 11 12 12 12 11 7 5 3 6 9 11 12 14 16 17 18 18 22 22 20 19 21 23 23 25 26 24 23
32 29 26 26 26 27 25 24 22 21 17 16 14 13 13 12 11 11 11 10 7 5 3 5 8 11 13 16 19 18 17 18 18 17 16 16 18 22 24 24 26 28 30
26 25 24 27 27 24 23 20 21 18 16 17 17 16 14 11 9 8 7 5 5 3 5 6 8 10 12 14 16 18 18 15 14 14 15 15 16 21 22 24 26 29 29
23 24 26 26 25 21 20 21 21 19 19 19 18 16 12 8 8 11 10 8 10 7 6 7 8 9 12 14 14 15 13 11 8 9 12 16 19 21 24 24 25 26 27
24 25 25 24 23 22 17 16 20 18 17 15 15 15 14 10 9 6 8 9 9 9 10 12 10 10 11 12 12 8 7 9 6 10 15 18 20 22 24 25 26 26 27
Wind_Direction
136 130 84 235 273 305 318 333 338 3 2 358 18 35 44 14 3 354 348 340 332 324 322 313 306 295 293 294 291 289 286 284 286 293 291 290 294 297 298 280 273 273 277
142 137 169 218 278 307 304 320 336 347 356 357 15 33 50 34 9 346 341 339 334 336 338 328 321 311 303 294 299 305 308 308 310 313 317 315 307 287 260 284 287 290 302
150 159 178 212 284 324 3 24 8 14 19 11 1 356 267 281 290 313 322 327 321 325 326 327 330 329 331 323 324 319 317 317 318 327 331 325 308 295 290 266 273 277 285
148 163 180 209 208 335 75 59 348 12 26 37 30 18 356 335 326 320 314 303 301 306 313 313 311 309 312 314 320 323 325 320 319 328 216 240 270 307 303 285 280 282 283
171 173 184 181 192 182 155 123 313 348 6 8 12 6 358 359 336 336 327 319 306 307 306 305 310 309 306 305 308 312 317 321 319 318 316 304 282 283 273 294 288 279 274
168 176 172 173 183 190 171 157 262 336 3 6 14 10 1 352 341 341 340 339 338 334 338 335 331 326 320 315 313 314 310 301 301 296 287 282 293 275 287 285 293 292 288
175 179 169 174 188 201 174 172 255 338 355 358 10 15 16 5 354 350 347 343 345 345 347 350 348 346 344 336 334 323 315 309 310 309 307 298 274 266 270 276 287 294 293
176 167 164 183 199 204 189 183 249 338 356 14 18 21 22 20 14 6 1 356 357 2 3 3 360 357 352 355 352 341 336 336 327 319 310 303 294 284 277 276 288 299 298
170 169 174 182 203 207 193 190 225 321 8 33 28 28 28 27 25 23 22 24 21 29 23 16 14 19 22 29 20 16 16 19 19 5 354 343 324 304 292 282 282 285 298
173 177 184 189 205 215 199 185 194 214 51 51 37 37 39 35 32 35 34 41 34 31 25 15 21 37 41 48 41 36 41 47 43 28 27 30 24 6 344 319 292 281 284
179 182 182 194 212 216 204 186 175 138 107 83 67 60 51 39 33 37 38 36 36 30 21 4 18 28 43 46 45 34 31 42 40 30 34 39 38 37 32 21 355 317 302
182 174 180 191 204 211 205 190 167 137 90 83 84 85 72 47 32 31 31 25 32 8 2 351 11 23 42 38 41 29 25 34 35 25 35 40 41 47 37 35 27 18 9
178 178 194 195 195 202 208 193 150 122 104 119 189 162 117 103 64 5 8 4 26 341 352 354 13 29 45 41 39 25 23 31 30 24 30 35 38 41 38 34 37 34 31
186 182 193 191 189 196 202 194 162 156 166 176 214 196 181 157 155 282 322 338 1 340 353 16 18 36 56 50 41 30 31 34 33 28 33 36 34 31 33 32 32 33 36
183 184 191 190 188 192 193 184 171 162 180 170 193 187 199 205 221 265 321 349 346 331 354 26 32 42 58 55 42 26 36 42 43 40 41 43 43 37 34 33 32 32 30
187 183 195 192 188 189 188 180 161 163 201 191 192 206 214 199 232 309 345 2 39 39 27 44 43 47 57 55 47 38 35 40 39 41 43 46 49 42 37 42 36 40 35
183 181 192 189 186 185 187 167 179 190 208 212 211 210 198 188 197 48 62 71 71 68 62 54 45 49 55 48 29 42 32 36 38 39 39 41 43 44 42 42 40 39 51
173 179 187 182 176 176 176 170 186 190 196 196 196 190 185 155 136 123 98 88 78 72 65 57 51 50 58 59 47 32 38 39 39 37 38 36 36 32 37 40 43 41 38
177 182 187 181 175 183 181 169 182 200 209 205 202 194 181 155 137 130 108 92 79 65 55 55 51 49 54 59 61 47 54 48 46 43 44 33 35 28 32 33 38 40 42
181 183 184 184 188 180 168 176 194 203 201 195 183 171 160 143 128 117 108 97 83 68 52 45 44 46 51 48 49 51 51 50 47 45 42 38 36 30 29 29 29 30 26
177 177 179 182 181 179 178 184 191 198 190 178 166 156 143 128 117 115 107 102 94 75 49 42 43 44 49 50 49 51 51 48 45 42 43 40 34 37 34 36 36 32 24
169 175 175 176 179 179 182 182 190 194 190 182 167 152 135 131 123 117 117 113 125 120 50 33 51 52 53 57 55 53 54 51 48 42 41 42 34 37 37 35 39 36 33
171 175 179 177 179 183 185 187 191 192 176 176 168 152 138 138 147 148 148 152 165 150 104 55 60 61 59 62 62 64 59 52 49 40 44 44 36 33 35 34 30 31 30
177 179 180 177 175 181 187 194 189 180 173 164 152 142 142 156 150 163 167 154 162 144 88 79 65 60 58 59 59 53 48 43 35 33 40 43 36 32 31 30 28 27 27
181 184 180 177 178 180 180 183 186 175 166 161 159 160 166 175 136 129 120 120 112 100 78 67 51 54 52 46 60 48 32 23 18 18 28 31 28 28 26 27 25 24 21
176 173 170 168 166 173 169 171 162 162 164 164 168 164 162 162 158 141 124 105 95 82 70 55 51 59 59 46 63 73 39 38 21 18 28 28 26 25 22 19 18 18 16